This is the latest recevied weather packets stored in our database for station/object AJ7DN. If no packets are shown the sender has not sent any weather packets the latest 10 day(s).
| Time | Temp. | Humidity | Pressure | Rain* | Wind** | Luminosity | Snow |
|---|---|---|---|---|---|---|---|
| 1777577908 | 23.33° C | 41% | 1021.8 hPa | 0 mm | - | 493 W/m² | - |
| 1777577603 | 23.33° C | 43% | 1021.7 hPa | 0 mm | - | 508 W/m² | - |
| 1777577301 | 22.78° C | 43% | 1021.9 hPa | 0 mm | - | 464 W/m² | - |
| 1777576997 | 22.78° C | 43% | 1021.8 hPa | 0 mm | - | 427 W/m² | - |
| 1777576694 | 22.78° C | 42% | 1022.1 hPa | 0 mm | - | 484 W/m² | - |
| 1777576392 | 23.33° C | 43% | 1022.2 hPa | 0 mm | - | 484 W/m² | - |
| 1777576089 | 22.78° C | 43% | 1022.3 hPa | 0 mm | - | 494 W/m² | - |
| 1777575785 | 22.78° C | 43% | 1022 hPa | 0 mm | - | 567 W/m² | - |
| 1777575482 | 22.22° C | 44% | 1022.2 hPa | 0 mm | - | 551 W/m² | - |
| 1777575177 | 22.78° C | 46% | 1022.3 hPa | 0 mm | - | 568 W/m² | - |
| 1777574873 | 22.22° C | 47% | 1022 hPa | 0 mm | - | 726 W/m² | - |
| 1777574571 | 22.22° C | 48% | 1022.3 hPa | 0 mm | - | 653 W/m² | - |
| 1777574267 | 21.67° C | 47% | 1022.2 hPa | 0 mm | - | 585 W/m² | - |
| 1777573962 | 21.67° C | 48% | 1022.4 hPa | 0 mm | - | 586 W/m² | - |
| 1777573657 | 21.67° C | 50% | 1022.4 hPa | 0 mm | - | 762 W/m² | - |
| 1777573354 | 21.67° C | 50% | 1022.4 hPa | 0 mm | - | 750 W/m² | - |
| 1777573049 | 21.11° C | 48% | 1022.4 hPa | 0 mm | - | 648 W/m² | - |
| 1777572747 | 21.11° C | 50% | 1022.4 hPa | 0 mm | - | 670 W/m² | - |
| 1777572447 | 20.56° C | 49% | 1022.5 hPa | 0 mm | - | 579 W/m² | - |
| 1777572144 | 20° C | 51% | 1022.5 hPa | 0 mm | - | 541 W/m² | - |
| 1777571839 | 20° C | 52% | 1022.6 hPa | 0 mm | - | 600 W/m² | - |
| 1777571535 | 19.44° C | 54% | 1022.7 hPa | 0 mm | - | 603 W/m² | - |
| 1777571232 | 20° C | 53% | 1022.7 hPa | 0 mm | - | 608 W/m² | - |
| 1777570928 | 19.44° C | 56% | 1022.6 hPa | 0 mm | - | 587 W/m² | - |
| 1777570624 | 18.89° C | 55% | 1022.9 hPa | 0 mm | - | 559 W/m² | - |
* Rain latest hour (hover to see other rain measurements)
** Current wind speed in m/s (hover to see current wind gust speed)